FENGYUN 1C DEB, 38801

Orbit data source: Space-Track

FENGYUN 1C DEB, 38801 is space debris in SSO originally from a launch on Mon, 10 May 1999 UTC launched from the Taiyaun Space Center, China (TSC). Fengyun 1C debris stems from the Chinese weather satellite Fengyun-1C, which was intentionally destroyed by a Chinese anti-satellite missile in 2007. This event dramatically increased the amount of space debris, with thousands of trackable fragments posing hazards to satellites and human spaceflight. The Fengyun 1C debris cloud has become a focal point in discussions about space sustainability and the need for international regulations to prevent the creation of new debris.

Loading next visibility...
Identifier
38801, 1999-025EUR
Orbit
SSO
Country
Flag of CNCN / PRC
Related business
Manufacturer
Unknown
Mission
Spacecraft
Bus & Motor
Unknown
Mass
Unknown
Launch date (UTC)
1999-05-10 (27 years ago)
Launch vehicle
Unknown
Launch site
Taiyaun Space Center, China (TSC)
Object type
Payload
Rocket body
Debris
Shape & HBR
Unknown shape, 0.1 m
Radar Cross Section
Small (<0.1 m²)

Expand to show TLE details & history
Last TLE update: 2 days ago

TLE from 2 days ago
0 FENGYUN 1C DEB
1 38801U 99025EUR 26164.89965067  .00002044  00000-0  47148-3 0  9991
2 38801  98.3462 212.3793 0344645 172.6574   5.1973 14.25714390669696
Epoch: 2026-06-13T21:35Z
TLE epoch observation values (Epoch: 2026-06-13T21:35:29.817Z)
Latitude
1.64398°
Longitude
166.53687°
Altitude
562.272 km
Speed
7.709 km/s
True Right ascension
02h 10m 28s
True Declination
1° 38' 02"
Sunlit
Object was in daylight at epoch
Visualization orbit readout
Latitude
Unknown
Longitude
Unknown
Altitude
Unknown
Speed
Unknown
Apparent Right ascension
Unknown
Apparent Declination
Unknown
Sunlit
N/A
Visualization observer readout
Local Sidereal Time
12:54:07
Azimuth
Unknown
Elevation
Unknown
Doppler factor
Unknown
Orbital elements
Apogee altitude
1,050.722 km
Perigee altitude
555.719 km
Semi-major axis
7,181.357 km
Eccentricity
0.03446
Inclination
98.3462°
RAAN
212.3793°
Arg. of periapsis
172.6574°
True anomaly
5.57106°
Mean anomaly
5.1973°
Eccentric anomaly
5.38253°
Mean motion
3.56643 °/min
Orbital period
100.94 mins
BSTAR
0.00047148
Loading maneuver chart data...
Computing Atmospheric mass density...

Documentation

Showing up to 5 results
|